CZ-3C DEB, 42477

Orbit data source: Space-Track

CZ-3C DEB, 42477 is space debris in HEO originally from a launch on Fri, 24 Feb 2012 UTC launched from the Xichang Space Center, China (XSC). Debris objects in space refer to the collection of defunct objects orbiting the Earth. Examples of debris include non-operational satellites, rocket bodies, and fragments generated from explosions, collisions, or faulty payload assembly.

Loading next visibility...
CZ-3C DEB details
Identifier
42477, 2012-008AM
Orbit
HEO
Last TLE update2 days ago
Origin
Flag of CNCASC (CN / PRC)
ManufacturerCALT
MissionSpacecraft
Bus & MotorUnknown
MassUnknown
Launch date (UTC)
2012-02-24 (13 years ago)
Launch vehicleUnknown
Launch site
Xichang Space Center, China (XSC)
Object type
Payload
Rocket body
Debris
Shape & HBRUnknown
Radar Cross SectionMedium (>0.1 m² and <1 m²)

Expand to show TLE details & history

TLE from 2 days ago
0 CZ-3C DEB
1 42477U 12008AM  24359.79316337  .00007103  00000-0  13558-1 0  9991
2 42477  19.8017 273.6256 6960293  62.3321 350.3873  2.61007888 91600
Epoch: 2024-12-24T19:02Z
Definitive object data (Epoch: 2024-12-24T19:02:09.315Z)
Latitude0.00008°
Longitude-105.63415°
Altitude2,307.605 km
Speed8.596 km/s
True Right ascension18h 14m 48s
True Declination0° 00' 00"
Sunlit
Object was in daylight at TLE epoch
Visualization TLE readout
Latitude-17.59822°
Longitude135.16549°
Altitude31,392.804 km
Speed1.794 km/s
Apparent Right ascension10h 03m 07s
Apparent Declination-26° 04' 46"
Sunlit
Object is in daylight
Visualization observer readout
Local Sidereal Time11:57:04
Azimuth206.919° SW
Elevation18.868°
Doppler factor1
Orbital elements
Apogee altitude31,421.346 km
Perigee altitude396.472 km
Semi-major axis22,287.046 km
Eccentricity0.6960293
Inclination19.8017°
RAAN273.6256°
Arg. of periapsis62.3321°
True anomaly297.41041°
Mean anomaly350.3873°
Eccentric anomaly331.13641°
Mean motion0.65233 °/min
BSTAR0.013558
Orbital period551.87 mins
Loading maneuver chart data...
Loading historical data...
Loading historical data...
Loading historical data...
Loading historical data...
Loading historical data...
Loading historical data...
Loading historical data...

CZ-3C DEB Visibility forecast

Observer location: undefined°, undefined

Span
Click to sort rows by Start time (UTC) header in descending order
Start Az.
Max El. time (UTC)
Max El. Az.
Max El.
End time (UTC)
End Az.
187 mins2024-12-26 12:35:31.865Z206.911° SW2024-12-26 12:35:31.865Z206.911° SW17.911°2024-12-26 15:42:31.865Z210.725° SW
37 mins2024-12-26 16:01:31.865Z207.42° SW2024-12-26 16:28:31.865Z196.504° SSW10.385°2024-12-26 16:38:31.865Z187.98° SSW
23 mins2024-12-27 02:36:31.865Z198.704° SSW2024-12-27 02:41:31.865Z158.349° S20.213°2024-12-27 02:59:31.865Z121.585° SE
|